Tracking 31030 objects as of 16-Jul-2025
HD Live streaming from Space Station
objects crossing your sky now

CZ-6A DEB

Track CZ-6A DEB now!
10-day predictions


NORAD ID: 56277
Int'l Code: 2022-151ACV
Perigee: 768.5 km
Apogee: 836.0 km
Inclination: 98.7 °
Period: 100.8 minutes
Semi major axis: 7173 km
RCS: Unknown
Launch date: November 11, 2022
Source: People's Republic of China (PRC)
Launch site: Taiyaun Space Center, China (TSC)

Note: This is SATELLITE DEBRIS
Your satellite tracking list
Your tracking list is empty




NASA's NSSDC Master Catalog

Two Line Element Set (TLE):
1 56277U 22151ACV 25197.58251430  .00001299  00000-0  52526-3 0  9994
2 56277  98.7418 216.5988 0047020 225.9313 133.7993 14.28983370120961
Source of the keplerian elements: AFSPC